Probability
0 0 0 0 0 0 0 0 0 0 0 0 0 0 0 0 0 0 0 0 0 0 0 0 0 1 2 3 3 3 3 1 0 0 0 0 0 0 0 0 0 0 0 0
0 0 0 0 0 0 0 0 0 0 0 0 0 0 0 0 0 0 0 0 0 0 0 0 0 0 1 2 2 4 4 2 1 0 0 0 0 0 0 0 0 0 0 0
0 0 0 0 0 0 0 0 0 0 0 0 0 0 0 0 0 0 0 0 0 0 0 0 0 0 0 0 1 3 4 4 3 2 1 1 1 0 0 0 0 0 0 0
0 0 0 0 0 0 0 0 0 0 0 0 0 0 0 0 0 0 0 0 0 0 0 0 0 0 0 0 0 1 3 5 5 5 4 3 3 1 0 0 0 0 0 0
0 0 0 0 0 0 0 0 0 0 0 0 0 0 0 0 0 0 0 0 0 0 0 0 0 0 0 0 0 0 1 4 6 7 6 5 5 3 1 0 0 0 0 0
0 0 0 0 0 0 0 0 0 0 0 0 0 0 0 0 0 0 0 0 0 0 0 0 0 0 0 0 0 0 0 2 3 5 5 5 6 5 3 1 1 0 0 0
0 0 0 0 0 0 0 0 0 0 0 0 0 0 0 0 0 0 0 0 0 0 0 0 0 0 0 0 0 0 0 0 1 2 2 3 4 4 3 2 1 1 1 0
0 0 0 0 0 0 0 0 0 0 0 0 0 0 0 0 0 0 0 0 0 0 0 0 0 0 0 0 0 0 0 0 0 0 1 1 1 1 1 1 1 2 2 1
0 0 0 0 0 0 0 0 0 0 0 0 0 0 0 0 0 0 0 0 0 0 0 0 0 0 0 0 0 0 0 0 0 0 0 1 0 0 0 0 0 1 2 2
0 0 0 0 0 0 0 0 0 0 0 0 0 0 0 0 0 0 0 0 0 0 0 0 0 0 0 0 0 0 0 0 0 0 0 0 0 0 0 0 0 0 1 1
0 0 0 0 0 0 0 0 0 0 0 0 0 0 0 0 0 0 0 0 0 0 0 0 0 0 0 0 0 0 0 0 0 0 0 0 0 0 0 0 0 0 0 0
0 0 0 0 0 0 0 0 0 0 0 0 0 0 0 0 0 0 0 0 0 0 0 0 0 0 0 0 0 0 0 0 0 0 0 0 0 0 0 0 0 0 0 0
0 0 0 0 0 0 0 0 0 0 0 0 0 0 0 0 0 0 0 0 0 0 0 0 0 0 0 0 0 0 0 0 0 0 0 0 0 0 0 0 0 0 0 0
0 0 0 0 0 0 0 0 0 0 0 0 0 0 0 0 0 0 0 0 0 0 0 0 0 0 0 0 0 0 0 0 0 0 0 0 0 0 0 0 0 0 0 0
0 0 0 0 0 0 0 0 0 0 0 0 0 0 0 0 0 0 0 0 0 0 0 0 0 0 0 0 0 0 0 0 0 0 0 0 0 0 0 0 0 0 0 0
0 0 0 0 0 0 0 0 0 0 0 0 0 0 0 0 0 0 0 0 0 0 0 0 0 0 0 0 0 0 0 0 0 0 0 0 0 0 0 0 0 0 0 0
0 0 0 0 0 0 0 0 0 0 0 0 0 0 0 0 0 0 0 0 0 0 0 0 0 0 0 0 0 0 0 0 0 0 0 0 0 0 0 0 0 0 0 0
0 0 0 0 0 0 0 0 0 0 0 0 0 0 0 0 0 0 0 0 0 0 0 0 0 0 0 0 0 0 0 0 0 0 0 0 0 0 0 0 0 0 0 0
0 0 0 0 0 0 0 0 0 0 0 0 0 0 0 0 0 0 0 0 0 0 0 0 0 0 0 0 0 0 0 0 0 0 0 0 0 0 0 0 0 0 0 0
0 0 0 0 0 0 0 0 0 0 0 0 0 0 0 0 0 0 0 0 0 0 0 0 0 0 0 0 0 0 0 0 0 0 0 0 0 0 0 0 0 0 0 0
0 0 0 0 0 0 0 0 0 0 0 0 0 0 0 0 0 0 0 0 0 0 0 0 0 0 0 0 0 0 0 0 0 0 0 0 0 0 0 0 0 0 0 0
0 0 0 0 0 0 0 0 0 0 0 0 0 0 0 0 0 0 0 0 0 0 0 0 0 0 0 0 0 0 0 0 0 0 0 0 0 0 0 0 0 0 0 0
0 0 0 0 0 0 0 0 0 0 0 0 0 0 0 0 0 0 0 0 0 0 0 0 0 0 0 0 0 0 0 0 0 0 0 0 0 0 0 0 0 0 0 0
0 0 0 0 0 0 0 0 0 0 0 0 0 0 0 0 0 0 0 0 0 0 0 0 0 0 0 0 0 0 0 0 0 0 0 0 0 0 0 0 0 0 0 0
0 0 0 0 0 0 0 0 0 0 0 0 0 0 0 0 0 0 0 0 0 0 0 0 0 0 0 0 0 0 0 0 0 0 0 0 0 0 0 0 0 0 0 0
0 0 0 0 0 0 0 0 0 0 0 0 0 0 0 0 0 0 0 0 0 0 0 0 0 0 0 0 0 0 0 0 0 0 0 0 0 0 0 0 0 0 0 0
Wind_Speed
4 6 3 1 1 1 2 2 1 2 3 2 2 5 6 4 3 4 4 4 4 5 5 3 2 2 1 1 2 2 3 2 2 2 2 2 2 1 1 1 1 1 1 2
5 3 2 1 1 2 1 1 1 2 3 2 2 6 5 3 3 4 4 4 5 4 5 5 3 2 1 2 2 3 3 3 3 3 3 2 2 1 2 1 1 2 1 1
4 1 1 2 2 1 1 2 2 2 3 2 3 6 3 3 2 3 3 3 4 4 5 5 4 3 2 2 2 2 3 3 3 2 1 1 1 1 0 1 1 2 2 2
2 3 1 2 1 0 2 2 2 1 1 2 2 4 5 4 4 4 5 5 5 5 5 5 5 5 4 3 2 2 1 2 2 2 2 3 2 2 3 2 1 1 1 2
1 2 2 2 1 0 2 1 1 1 1 1 1 2 7 3 4 5 5 5 5 5 4 4 5 5 5 5 4 2 1 1 1 2 3 3 2 2 1 0 1 1 1 1
1 1 1 1 1 1 0 2 2 2 2 2 2 3 6 2 3 5 5 5 5 5 5 5 6 6 6 6 6 4 3 2 1 1 2 3 3 2 1 1 1 1 1 1
5 3 3 2 2 3 3 4 3 4 2 4 2 3 6 3 2 2 4 4 4 4 5 6 7 7 7 7 7 6 5 4 3 1 1 2 3 3 3 2 2 2 1 1
3 3 3 3 1 0 1 2 4 2 3 4 2 5 5 2 2 2 3 4 5 5 5 5 6 6 6 7 6 6 6 5 5 3 2 1 1 1 1 2 1 1 1 1
1 2 3 3 2 1 2 1 2 3 1 2 4 5 6 2 3 3 4 5 5 5 5 5 6 5 5 6 6 6 6 6 6 5 4 3 3 2 1 1 1 1 1 2
1 1 3 4 2 3 1 3 3 3 2 2 5 4 4 4 4 4 4 4 5 5 5 5 5 5 5 5 5 6 6 6 6 6 5 4 4 3 3 2 2 2 2 2
1 1 4 3 2 1 2 2 2 2 2 3 3 6 3 4 3 3 3 3 4 4 4 4 5 4 4 4 5 6 6 6 6 6 5 5 5 4 4 3 3 3 3 3
1 2 1 3 2 1 0 1 3 2 2 2 2 7 2 2 2 2 3 4 4 3 3 3 4 4 4 5 5 5 5 5 5 5 5 5 5 5 5 5 5 5 4 3
1 3 2 5 4 3 1 1 1 2 2 3 3 8 2 2 2 2 2 3 3 3 3 3 3 4 4 4 5 5 5 5 5 5 5 5 6 6 6 6 6 5 5 5
3 2 4 5 4 2 3 3 2 3 3 4 8 10 8 6 5 4 3 3 3 3 3 3 3 3 3 3 4 4 5 5 5 5 5 5 5 5 5 5 5 5 5 5
3 1 2 4 4 3 5 6 5 7 7 8 8 8 11 8 6 4 3 3 3 3 3 3 3 3 3 4 4 4 4 5 4 4 5 5 5 5 5 5 5 5 5 5
2 2 1 4 3 4 6 9 9 9 8 9 10 12 9 7 4 4 5 4 4 4 4 3 3 3 3 3 4 4 4 4 4 4 4 5 5 5 5 5 5 6 6 6
1 3 1 4 5 5 7 9 9 6 6 7 10 11 5 4 5 5 5 4 5 5 4 4 3 3 3 3 3 3 3 3 3 3 4 4 4 5 5 5 5 5 5 5
4 4 2 2 5 5 8 1 5 6 7 8 8 8 6 7 5 4 4 5 6 5 5 4 3 3 2 2 2 2 2 2 3 3 4 4 5 5 5 5 5 5 5 5
4 5 3 2 2 11 10 4 4 5 7 8 10 10 8 4 3 5 4 5 6 5 4 3 3 2 2 2 2 2 2 2 2 3 4 4 4 5 5 5 6 5 5 5
3 4 4 3 2 9 7 2 2 2 7 6 6 8 6 1 2 6 3 3 4 3 2 2 1 1 2 2 2 1 2 2 3 4 4 4 4 4 5 5 6 5 5 5
3 3 4 5 6 13 9 3 4 3 8 3 5 6 5 6 7 4 2 2 2 2 2 2 1 1 2 2 1 1 2 3 3 4 4 4 4 4 5 5 5 5 5 5
9 8 8 6 7 14 5 7 8 9 3 2 3 5 6 6 6 5 4 3 3 3 3 2 2 2 2 1 0 1 2 3 3 3 4 4 4 4 4 4 5 5 5 5
10 11 9 13 13 6 7 9 7 3 4 4 4 5 5 5 6 5 5 4 4 3 3 2 2 2 1 1 0 2 3 3 3 3 3 4 4 4 4 4 4 4 4 4
6 4 5 8 12 9 8 9 8 7 7 7 5 5 5 6 7 6 5 5 4 3 3 2 2 2 2 1 1 2 3 2 2 3 4 4 4 4 4 3 3 3 3 4
8 7 6 9 9 7 9 11 12 9 7 7 7 6 7 7 8 7 6 5 5 4 3 2 2 3 3 2 1 2 2 1 2 3 3 3 3 4 4 4 3 4 4 4
10 11 11 12 10 8 8 6 6 7 8 8 8 7 6 7 8 6 6 5 4 3 2 2 3 3 3 2 2 2 1 1 1 2 3 2 3 3 3 4 5 6 7 9
Wind_Direction
33 60 47 325 145 160 147 137 234 282 322 6 298 289 296 306 310 301 297 290 288 287 297 315 303 296 278 241 216 200 194 196 174 179 191 199 214 216 211 218 214 218 229 218
58 37 300 288 91 92 99 143 284 316 343 3 301 288 285 280 275 272 282 291 291 307 326 329 331 334 274 238 227 211 208 200 194 199 193 189 187 196 207 226 232 228 228 217
99 294 315 68 54 63 5 208 229 276 336 7 340 312 301 301 306 334 332 314 318 313 314 326 338 333 325 297 257 230 214 204 200 192 147 103 96 73 112 260 259 254 237 229
59 321 7 70 37 69 261 242 205 232 37 337 33 294 293 311 325 338 334 339 335 336 338 342 347 347 338 317 310 283 227 206 199 176 141 144 168 204 231 240 249 287 253 245
14 354 42 54 326 310 242 268 178 211 153 327 357 253 288 328 328 325 326 331 334 344 349 353 353 349 351 348 348 340 347 250 201 178 177 179 203 226 246 323 303 278 276 287
351 357 40 286 293 249 213 60 57 56 73 268 227 209 283 293 300 317 332 338 341 346 352 359 2 8 6 3 4 4 12 359 346 179 183 189 208 221 238 290 277 284 289 296
6 6 5 11 22 18 48 75 41 13 5 258 242 217 255 287 306 299 317 333 339 352 2 3 3 4 5 4 4 5 14 8 2 42 191 213 221 220 224 239 248 265 284 300
33 342 350 8 47 337 5 112 138 183 238 288 303 240 256 279 336 352 355 355 356 357 1 2 357 359 5 2 2 10 14 10 10 15 4 354 308 242 252 263 267 272 284 287
78 294 333 351 339 109 113 117 119 114 61 298 274 285 295 312 340 355 359 2 356 351 354 354 354 359 6 3 3 10 15 15 14 14 13 22 19 6 344 340 324 328 328 326
127 288 320 324 10 25 95 132 97 112 135 276 289 276 271 304 315 336 344 339 336 345 351 351 352 357 3 5 8 16 20 18 13 15 15 16 17 12 8 13 0 346 332 327
78 111 326 360 28 4 45 79 98 115 161 178 276 275 236 249 272 296 306 319 325 333 340 342 344 352 2 10 15 16 17 19 16 14 14 19 16 17 18 15 354 332 323 322
66 105 314 289 279 292 107 155 144 155 237 206 235 272 280 255 285 284 306 324 331 338 343 341 343 356 5 7 9 10 10 14 10 10 17 20 17 19 18 7 356 351 340 328
112 100 27 349 348 5 356 263 175 143 146 189 207 264 304 327 319 294 296 315 324 335 341 347 353 353 355 356 358 2 2 5 5 11 16 17 13 13 9 360 353 353 348 346
100 111 166 206 241 256 273 268 224 175 199 229 232 260 288 295 299 302 302 303 309 318 325 335 336 335 343 347 350 355 356 358 3 11 13 9 5 2 358 354 354 352 352 353
87 143 236 260 275 270 259 260 240 221 220 223 249 255 266 271 271 279 283 298 313 316 316 315 318 321 333 345 348 351 350 351 358 9 6 357 354 357 357 357 356 354 356 354
67 122 347 304 312 302 279 262 247 241 238 242 260 270 264 273 276 281 279 279 287 292 298 303 309 316 324 329 331 336 338 340 354 5 354 349 353 356 355 352 353 354 353 351
96 112 67 291 321 350 283 245 217 220 219 210 234 250 270 272 252 252 257 253 255 266 275 283 289 292 303 311 314 311 314 330 347 350 346 346 348 350 348 347 349 348 344 344
144 122 123 324 14 261 247 236 201 222 244 226 242 259 256 251 259 263 250 246 254 258 265 269 273 285 296 301 307 307 320 340 344 344 343 344 345 342 341 342 340 338 337 335
167 142 127 119 279 280 290 256 187 202 268 234 234 254 262 266 308 290 258 239 243 249 253 253 251 264 289 303 307 317 331 341 345 340 336 335 335 332 333 334 331 328 327 324
101 125 129 142 210 252 254 216 168 111 284 253 215 239 252 203 274 275 277 258 258 263 255 249 257 277 296 302 313 321 325 338 328 323 323 327 330 328 326 323 322 322 320 316
144 158 179 191 232 262 252 213 134 171 252 254 202 220 213 207 229 255 280 282 270 270 266 259 254 263 280 302 332 324 328 316 314 323 327 330 331 325 318 320 323 323 321 322
178 176 191 173 209 253 210 154 190 221 256 241 224 219 219 231 249 262 268 264 268 270 271 266 265 277 299 328 347 307 306 314 329 335 334 333 333 329 327 329 326 327 325 322
203 194 189 197 216 236 182 202 223 220 238 245 240 243 229 239 249 254 258 258 258 255 261 263 260 278 313 341 316 284 302 327 335 336 327 324 327 327 328 325 322 324 324 318
235 199 205 245 256 250 242 247 255 243 240 250 247 245 231 239 249 255 257 258 256 256 253 254 247 256 284 308 315 280 307 333 330 315 316 322 325 325 326 320 315 312 310 309
211 181 210 249 264 280 259 238 242 247 246 251 253 242 234 238 250 249 253 253 248 249 246 226 223 241 262 281 282 294 319 330 309 304 310 318 316 314 315 313 303 300 291 289
190 186 195 231 222 212 241 236 227 233 241 242 245 250 240 229 243 248 248 246 241 238 230 228 233 242 258 269 275 285 295 274 268 294 306 308 308 306 307 310 310 305 303 308